Location: Unspecified
(0.0000°N, 0.0000°E)
Time: 13:53:32
(UTC+00:00)

JUGNU - Pass Details

Date: 19 February 2020
Orbit: 836 x 864 km, 20.0° (Epoch: 01 April)

Event Time Altitude Azimuth Distance (km) Brightness Sun altitude
Rises 05:40:50 0° 226° (SW) 3,420 ? -8.1°
Reaches altitude 10° 05:44:16 10° 207° (SSW) 2,487 ? -7.3°
Maximum altitude 05:48:13 18° 166° (SSE) 1,984 ? -6.3°
Drops below altitude 10° 05:52:10 10° 124° (SE) 2,491 ? -5.3°
Sets 05:55:36 0° 105° (ESE) 3,427 ? -4.5°
